Regional Weather Roundup
Issued by NWS

Home | Current Version | Previous Version | Graphics & Text | Print | Product List | Glossary On
Versions: 1 2 3 4 5 6 7 8 9 10 11 12 13 14 15 16 17 18 19 20 21 22 23 24 25 26 27 28 29 30 31 32 33 34 35 36 37 38 39 40 41 42 43 44 45 46 47 48 49 50
477
ASUS45 KPSR 241510
RWRAZ

ARIZONA HOURLY REGIONAL WEATHER ROUNDUP
NATIONAL WEATHER SERVICE PHOENIX AZ
800 AM MST SAT SEP 24 2016

NOTE: FAIR INDICATES FEW OR NO CLOUDS BELOW 12,000 FEET WITH NO
SIGNIFICANT WEATHER AND/OR OBSTRUCTIONS TO VISIBILITY.

AZZ001>003-036-241600-
NORTHWEST ARIZONA

CITY           SKY/WX    TMP DP  RH WIND       PRES   REMARKS
BULLHEAD CITY  SUNNY     66  36  32 N6        30.06R
KINGMAN        SUNNY     57  32  38 CALM      30.16R
$$

AZZ004>008-015-016-018-241600-
NORTH CENTRAL ARIZONA

CITY           SKY/WX    TMP DP  RH WIND       PRES   REMARKS
GRAND CANYON   SUNNY     44  35  70 CALM      30.26R
PRESCOTT       SUNNY     51  37  58 CALM      30.21R
FLAGSTAFF      SUNNY     47  33  58 S5        30.25R
PAYSON         SUNNY     57  27  30 CALM      30.21R
PAGE           SUNNY     56  36  47 CALM      30.16S
$$

AZZ009>014-017-241600-
NORTHEAST ARIZONA

CITY           SKY/WX    TMP DP  RH WIND       PRES   REMARKS
WINSLOW        SUNNY     48  23  37 E3        30.20R
SAINT JOHNS    SUNNY     50  28  42 S7        30.20F
WINDOW ROCK    SUNNY     39  29  67 S5        30.23R
SHOW LOW       SUNNY     48  21  34 CALM      30.23F
$$

AZZ023-241600-
GREATER PHOENIX AREA

CITY           SKY/WX    TMP DP  RH WIND       PRES   REMARKS
PHOENIX        SUNNY     69  30  23 NE5       30.01R
BUCKEYE        SUNNY     66  36  32 N3        30.03S
GLENDALE       SUNNY     68  37  32 W3        30.04R
LUKE AFB       SUNNY     66  43  42 N6        30.02R
DEER VALLEY    SUNNY     67  30  25 NE3       30.02R
SCOTTSDALE     SUNNY     67  33  28 NW3       30.04R
MESA-FALCON    SUNNY    N/A N/A N/A N9        30.00R
MESA-GATEWAY   SUNNY     63  28  27 SE6       30.03R
CHANDLER       SUNNY     63  37  39 E6          N/A
$$

AZZ027-028-241600-
SOUTHWEST MARICOPA COUNTY AND PINAL COUNTY

CITY           SKY/WX    TMP DP  RH WIND       PRES   REMARKS
CASA GRANDE    SUNNY     66  32  28 SE5       30.05R
GILA BEND      FAIR      66  27  23 SE3       30.00S
$$

AZZ503-504-507>509-241600-
SOUTHEAST ARIZONA

CITY           SKY/WX    TMP DP  RH WIND       PRES   REMARKS
TUCSON         SUNNY     66  46  48 SE8       30.08S
DAVIS-MONTHAN  SUNNY     67  48  50 SE7       30.07S
RYAN FIELD     SUNNY     66  36  32 CALM      30.08S
NOGALES        SUNNY     64  52  64 CALM      30.12S
SIERRA VISTA   SUNNY     64  49  58 VRB1      30.18R
DOUGLAS        SUNNY     61  52  72 CALM      30.14S
SAFFORD          N/A    N/A N/A N/A MISG      30.09R
$$

AZZ020-021-025-026-031-241600-
SOUTHWEST ARIZONA

CITY           SKY/WX    TMP DP  RH WIND       PRES   REMARKS
YUMA           SUNNY     72  34  24 NE5       29.99R
$$

CAZ031-033-041-043-047-048-061-241600-
SOUTHERN CALIFORNIA

CITY           SKY/WX    TMP DP  RH WIND       PRES   REMARKS
DOWNTOWN L.A.  SUNNY     66  43  43 CALM      29.99F
L.A. AIRPORT   MOSUNNY   68  42  38 E3        30.00S
SAN DIEGO      SUNNY     67  52  58 CALM      30.01S
BURBANK        SUNNY     63  33  32 CALM      30.02R
ONTARIO        SUNNY     67  41  38 CALM      30.03R
RIVERSIDE      SUNNY     63  40  42 NE6       30.03S
PALM SPRINGS   SUNNY     70  34  26 NW7       30.02S
EL CENTRO NAS  SUNNY     67  35  30 W7        30.00S
IMPERIAL       SUNNY     66  42  41 W6        29.98R
BLYTHE         SUNNY     66  35  31 CALM      30.01R
NEEDLES        SUNNY     69  33  26 CALM      30.06R
$$

NVZ020-UTZ003-241600-
SOUTHERN NEVADA-UTAH

CITY           SKY/WX    TMP DP  RH WIND       PRES   REMARKS
LAS VEGAS      SUNNY     69  27  20 NW5       30.12R
SALT LAKE CITY LGT RAIN  52  47  83 CALM      30.19R
$$

NMZ009-TXZ055-241600-
NEW MEXICO-WEST TEXAS

CITY           SKY/WX    TMP DP  RH WIND       PRES   REMARKS
ALBUQUERQUE    MOSUNNY   50  42  74 CALM      30.19R
EL PASO        MOSUNNY   73  46  38 SW5       30.10R
$$


........................KEY........................
SKY/WX - SKY CONDITION/WEATHER
TMP    - TEMPERATURE IN FAHRENHEIT
DP     - DEW POINT IN FAHRENHEIT
RH     - RELATIVE HUMIDITY IN PERCENT
WIND   - DIRECTION AND SPEED IN MILES PER HOUR (MPH)
VRB    - VARIABLE WIND DIRECTION
PRES   - MEAN SEA LEVEL PRESSURE IN INCHES OF MERCURY
         F - FALLING PRESSURE   R - RISING PRESSURE
         S - STEADY PRESSURE
VSB    - VISIBILITY IN MILES
HX     - HEAT INDEX IN FAHRENHEIT
WCI    - WIND CHILL INDEX IN FAHRENHEIT
TC     - TEMPERATURE IN CELSIUS WHICH IS ALSO KNOWN AS
         TEMPERATURE IN CENTIGRADE
AFB    - AIR FORCE BASE
         LUKE AFB IS LUKE AIR FORCE BASE
         DAVIS-MONTHAN IS DAVIS-MONTHAN AIR FORCE BASE
NAS    - NAVAL AIR STATION
         EL CENTRO NAS IS EL CENTRO NAVAL AIR STATION
N/A    - NOT AVAILABLE





USA.gov is the U.S. government's official web portal to all federal, state and local government web resources and services.